| time (UTC) | temp F | wind direction | speed MPH | gust MPH | rain 1hr in | rain 24hr in | rain mn in | humidity % | barometer mb |
| 20260506062258 | 57 | 247 | 0.0 | 0.0 | 0.00 | 0.00 | 0.00 | 86 | 1008.8 |
| 20260506061756 | 57 | 276 | 0.0 | 0.0 | 0.00 | 0.00 | 0.00 | 86 | 1008.8 |
| 20260506061257 | 58 | 275 | 0.0 | 0.0 | 0.00 | 0.00 | 0.00 | 86 | 1008.8 |
| 20260506051256 | 58 | 287 | 0.0 | 1.0 | 0.00 | 0.00 | 0.00 | 86 | 1009.1 |
| 20260506050758 | 58 | 303 | 0.0 | 1.0 | 0.00 | 0.00 | 0.00 | 86 | 1009.1 |
| 20260506050258 | 58 | 273 | 0.0 | 1.0 | 0.00 | 0.00 | 0.00 | 85 | 1009.1 |
| 20260506044756 | 58 | 264 | 0.0 | 1.0 | 0.00 | 0.00 | 0.00 | 84 | 1009.3 |
| 20260506044257 | 58 | 253 | 0.0 | 1.0 | 0.00 | 0.00 | 0.00 | 84 | 1009.3 |
| 20260506043758 | 59 | 249 | 0.0 | 1.0 | 0.00 | 0.00 | 0.00 | 83 | 1009.2 |
| 20260506043257 | 59 | 258 | 0.0 | 1.0 | 0.00 | 0.00 | 0.00 | 83 | 1009.2 |
| 20260506042756 | 59 | 281 | 0.0 | 1.0 | 0.00 | 0.00 | 0.00 | 83 | 1009.2 |
| 20260506042256 | 59 | 275 | 0.0 | 1.0 | 0.00 | 0.00 | 0.00 | 82 | 1009.1 |
| 20260506041755 | 60 | 277 | 0.0 | 1.0 | 0.00 | 0.00 | 0.00 | 82 | 1009.1 |
| 20260506041255 | 60 | 285 | 0.0 | 1.0 | 0.00 | 0.00 | 0.00 | 82 | 1009.2 |
| 20260506040756 | 60 | 272 | 0.0 | 1.0 | 0.00 | 0.00 | 0.00 | 81 | 1009.1 |
| 20260506040255 | 60 | 274 | 0.0 | 1.0 | 0.00 | 0.00 | 0.00 | 81 | 1009.2 |
| 20260506035755 | 60 | 262 | 0.0 | 1.0 | 0.00 | 0.00 | 0.00 | 81 | 1009.1 |
| 20260506035256 | 60 | 270 | 0.0 | 2.0 | 0.00 | 0.00 | 0.00 | 81 | 1009.1 |
| 20260506034756 | 60 | 279 | 0.0 | 2.0 | 0.00 | 0.00 | 0.00 | 81 | 1009.1 |
| 20260506033253 | 60 | 347 | 0.0 | 1.0 | 0.00 | 0.00 | 0.00 | 81 | 1009.1 |
| 20260506032253 | 60 | 291 | 0.0 | 1.0 | 0.00 | 0.00 | 0.00 | 81 | 1009.0 |
| 20260506031254 | 60 | 276 | 0.0 | 1.0 | 0.00 | 0.00 | 0.00 | 81 | 1008.9 |
| 20260506030754 | 60 | 281 | 0.0 | 1.0 | 0.00 | 0.00 | 0.00 | 81 | 1009.0 |
| 20260506025753 | 60 | 283 | 0.0 | 1.0 | 0.00 | 0.00 | 0.00 | 80 | 1009.0 |
| 20260506025252 | 60 | 260 | 0.0 | 2.0 | 0.00 | 0.00 | 0.00 | 80 | 1009.1 |
| 20260506024751 | 60 | 252 | 0.0 | 3.0 | 0.00 | 0.00 | 0.00 | 80 | 1009.1 |
| 20260506024251 | 60 | 250 | 0.0 | 3.0 | 0.00 | 0.00 | 0.00 | 80 | 1009.1 |
| 20260506023750 | 60 | 272 | 0.0 | 1.0 | 0.00 | 0.00 | 0.00 | 80 | 1009.0 |
| 20260506023251 | 60 | 281 | 0.0 | 2.0 | 0.00 | 0.00 | 0.00 | 79 | 1009.0 |
| 20260506022751 | 60 | 279 | 0.0 | 2.0 | 0.00 | 0.00 | 0.00 | 79 | 1009.0 |
| 20260506022252 | 60 | 282 | 0.0 | 2.0 | 0.00 | 0.00 | 0.00 | 79 | 1009.0 |
| 20260506021751 | 61 | 256 | 0.0 | 4.0 | 0.00 | 0.00 | 0.00 | 78 | 1009.0 |
| 20260506021251 | 61 | 264 | 1.0 | 4.0 | 0.00 | 0.00 | 0.00 | 77 | 1008.9 |
| 20260506020750 | 62 | 258 | 0.0 | 4.0 | 0.00 | 0.00 | 0.00 | 76 | 1008.8 |
| 20260506015749 | 63 | 268 | 0.0 | 3.0 | 0.00 | 0.00 | 0.00 | 74 | 1008.7 |
| 20260506014749 | 64 | 307 | 0.0 | 6.0 | 0.00 | 0.00 | 0.00 | 74 | 1008.5 |
| 20260506014249 | 63 | 289 | 0.0 | 2.0 | 0.00 | 0.00 | 0.00 | 74 | 1008.5 |
| 20260506013749 | 64 | 302 | 0.0 | 3.0 | 0.00 | 0.00 | 0.00 | 74 | 1008.5 |
| 20260506012748 | 64 | 297 | 0.0 | 3.0 | 0.00 | 0.00 | 0.00 | 72 | 1008.4 |
| 20260506012249 | 65 | 300 | 0.0 | 3.0 | 0.00 | 0.00 | 0.00 | 72 | 1008.3 |
| 20260506011750 | 65 | 302 | 0.0 | 3.0 | 0.00 | 0.00 | 0.00 | 71 | 1008.2 |
| 20260506011250 | 65 | 347 | 1.0 | 3.0 | 0.00 | 0.00 | 0.00 | 70 | 1008.2 |
| 20260506010747 | 65 | 251 | 1.0 | 14.0 | 0.00 | 0.00 | 0.00 | 70 | 1008.2 |
| 20260506005747 | 65 | 296 | 2.0 | 11.0 | 0.00 | 0.00 | 0.00 | 71 | 1008.0 |
| 20260506005248 | 65 | 283 | 2.0 | 11.0 | 0.00 | 0.00 | 0.00 | 71 | 1007.8 |
| 20260506004746 | 65 | 279 | 1.0 | 9.0 | 0.00 | 0.00 | 0.00 | 71 | 1007.9 |
| 20260506004247 | 65 | 323 | 1.0 | 10.0 | 0.00 | 0.00 | 0.00 | 71 | 1007.8 |
| 20260506003747 | 65 | 258 | 0.0 | 10.0 | 0.00 | 0.00 | 0.00 | 72 | 1007.7 |
| 20260506003246 | 64 | 316 | 0.0 | 2.0 | 0.00 | 0.00 | 0.00 | 72 | 1007.7 |
| 20260506002747 | 65 | 221 | 0.0 | 7.0 | 0.00 | 0.00 | 0.00 | 71 | 1007.6 |
| 20260506002247 | 65 | 253 | 0.0 | 7.0 | 0.00 | 0.00 | 0.00 | 71 | 1007.7 |
| 20260506001746 | 65 | 257 | 0.0 | 3.0 | 0.00 | 0.00 | 0.00 | 71 | 1007.6 |
| 20260506001246 | 65 | 335 | 0.0 | 9.0 | 0.00 | 0.00 | 0.00 | 70 | 1007.7 |
| 20260506000247 | 65 | 308 | 1.0 | 10.0 | 0.00 | 0.00 | 0.00 | 70 | 1007.5 |
| 20260505235744 | 65 | 240 | 1.0 | 8.0 | 0.00 | 0.00 | 0.00 | 70 | 1007.5 |
| 20260505235245 | 65 | 4 | 1.0 | 8.0 | 0.00 | 0.00 | 0.00 | 71 | 1007.5 |
| 20260505234245 | 64 | 243 | 0.0 | 7.0 | 0.00 | 0.00 | 0.00 | 73 | 1007.1 |
| 20260505233244 | 64 | 253 | 1.0 | 4.0 | 0.00 | 0.00 | 0.00 | 73 | 1006.9 |
| 20260505232745 | 64 | 237 | 1.0 | 7.0 | 0.00 | 0.00 | 0.00 | 73 | 1007.0 |
| 20260505231746 | 65 | 333 | 0.0 | 7.0 | 0.00 | 0.00 | 0.00 | 72 | 1006.9 |
| 20260505231245 | 65 | 272 | 0.0 | 1.0 | 0.00 | 0.00 | 0.00 | 72 | 1006.8 |
| 20260505230744 | 65 | 348 | 0.0 | 1.0 | 0.00 | 0.00 | 0.00 | 72 | 1006.6 |
| 20260505230244 | 65 | 267 | 0.0 | 1.0 | 0.00 | 0.00 | 0.00 | 71 | 1006.6 |
| 20260505225745 | 65 | 9 | 0.0 | 2.0 | 0.00 | 0.00 | 0.00 | 72 | 1006.6 |
| 20260505225245 | 65 | 271 | 0.0 | 3.0 | 0.00 | 0.00 | 0.00 | 72 | 1006.5 |
| 20260505224745 | 65 | 291 | 0.0 | 3.0 | 0.00 | 0.00 | 0.00 | 72 | 1006.4 |
| 20260505224245 | 65 | 305 | 0.0 | 2.0 | 0.00 | 0.00 | 0.00 | 71 | 1006.3 |
| 20260505222244 | 65 | 303 | 1.0 | 9.0 | 0.00 | 0.00 | 0.00 | 72 | 1006.3 |
| 20260505221745 | 65 | 277 | 4.0 | 13.0 | 0.00 | 0.00 | 0.00 | 71 | 1006.4 |
| 20260505221244 | 66 | 249 | 9.0 | 22.0 | 0.00 | 0.00 | 0.00 | 70 | 1006.2 |
| 20260505220744 | 66 | 271 | 11.0 | 22.0 | 0.00 | 0.00 | 0.00 | 70 | 1006.1 |
| 20260505220245 | 66 | 253 | 10.0 | 21.0 | 0.00 | 0.00 | 0.00 | 69 | 1006.0 |
| 20260505215744 | 66 | 238 | 10.0 | 21.0 | 0.00 | 0.00 | 0.00 | 69 | 1006.0 |
| 20260505215244 | 67 | 259 | 12.0 | 23.0 | 0.00 | 0.00 | 0.00 | 68 | 1006.0 |
| 20260505214745 | 67 | 250 | 12.0 | 23.0 | 0.00 | 0.00 | 0.00 | 68 | 1005.9 |
| 20260505214244 | 67 | 260 | 12.0 | 23.0 | 0.00 | 0.00 | 0.00 | 68 | 1005.9 |
| 20260505213744 | 67 | 258 | 11.0 | 23.0 | 0.00 | 0.00 | 0.00 | 68 | 1005.9 |
| 20260505213244 | 67 | 249 | 12.0 | 22.0 | 0.00 | 0.00 | 0.00 | 69 | 1005.9 |
| 20260505212744 | 67 | 262 | 9.0 | 22.0 | 0.00 | 0.00 | 0.00 | 69 | 1006.0 |
| 20260505212245 | 66 | 251 | 3.0 | 18.0 | 0.00 | 0.00 | 0.00 | 71 | 1006.0 |
| 20260505211745 | 66 | 268 | 0.0 | 5.0 | 0.00 | 0.00 | 0.00 | 71 | 1006.0 |
| 20260505211244 | 67 | 321 | 0.0 | 5.0 | 0.00 | 0.00 | 0.00 | 69 | 1006.1 |
| 20260505210745 | 68 | 257 | 0.0 | 5.0 | 0.00 | 0.00 | 0.00 | 68 | 1006.0 |
| 20260505210245 | 69 | 289 | 0.0 | 1.0 | 0.00 | 0.00 | 0.00 | 68 | 1006.1 |
| 20260505205744 | 69 | 285 | 0.0 | 1.0 | 0.00 | 0.00 | 0.00 | 68 | 1006.2 |
| 20260505205242 | 68 | 278 | 0.0 | 1.0 | 0.00 | 0.00 | 0.00 | 69 | 1006.2 |
| 20260505204743 | 68 | 304 | 0.0 | 2.0 | 0.00 | 0.00 | 0.00 | 70 | 1006.2 |
| 20260505203742 | 68 | 209 | 1.0 | 12.0 | 0.00 | 0.00 | 0.00 | 68 | 1006.2 |
| 20260505203242 | 69 | 274 | 1.0 | 12.0 | 0.00 | 0.00 | 0.00 | 68 | 1006.4 |
| 20260505202742 | 68 | 279 | 0.0 | 7.0 | 0.00 | 0.00 | 0.00 | 69 | 1006.3 |
| 20260505202243 | 68 | 312 | 0.0 | 4.0 | 0.00 | 0.00 | 0.00 | 70 | 1006.4 |
| 20260505201742 | 68 | 244 | 0.0 | 4.0 | 0.00 | 0.00 | 0.00 | 70 | 1006.5 |
| 20260505201242 | 67 | 251 | 0.0 | 3.0 | 0.00 | 0.00 | 0.00 | 70 | 1006.5 |
| 20260505200743 | 67 | 277 | 0.0 | 2.0 | 0.00 | 0.00 | 0.00 | 71 | 1006.6 |
| 20260505200242 | 67 | 12 | 2.0 | 6.0 | 0.00 | 0.00 | 0.00 | 72 | 1006.6 |
| 20260505195240 | 67 | 223 | 2.0 | 18.0 | 0.00 | 0.00 | 0.00 | 72 | 1006.8 |
| 20260505194742 | 65 | 172 | 0.0 | 2.0 | 0.00 | 0.00 | 0.00 | 74 | 1006.8 |
| 20260505193740 | 65 | 263 | 0.0 | 3.0 | 0.00 | 0.00 | 0.00 | 74 | 1007.0 |
| 20260505193240 | 65 | 256 | 1.0 | 9.0 | 0.00 | 0.00 | 0.00 | 75 | 1007.0 |
| 20260505192741 | 65 | 265 | 4.0 | 10.0 | 0.00 | 0.00 | 0.00 | 75 | 1007.0 |
| 20260505192240 | 64 | 236 | 7.0 | 12.0 | 0.00 | 0.00 | 0.00 | 75 | 1007.0 |
| 20260505191741 | 64 | 260 | 7.0 | 15.0 | 0.00 | 0.00 | 0.00 | 75 | 1007.1 |
| 20260505191238 | 64 | 244 | 6.0 | 15.0 | 0.00 | 0.00 | 0.00 | 76 | 1007.2 |
| 20260505190739 | 63 | 241 | 6.0 | 12.0 | 0.00 | 0.00 | 0.00 | 77 | 1007.3 |
| 20260505190238 | 63 | 255 | 7.0 | 13.0 | 0.00 | 0.00 | 0.00 | 76 | 1007.3 |
| 20260505185239 | 63 | 245 | 6.0 | 12.0 | 0.00 | 0.00 | 0.00 | 77 | 1007.5 |
| 20260505184738 | 63 | 250 | 5.0 | 12.0 | 0.00 | 0.00 | 0.00 | 78 | 1007.5 |
| 20260505184238 | 63 | 243 | 6.0 | 12.0 | 0.00 | 0.00 | 0.00 | 78 | 1007.5 |
| 20260505183738 | 63 | 254 | 4.0 | 12.0 | 0.00 | 0.00 | 0.00 | 78 | 1007.5 |
| 20260505183238 | 62 | 237 | 3.0 | 9.0 | 0.00 | 0.00 | 0.00 | 79 | 1007.6 |
| 20260505182739 | 62 | 256 | 5.0 | 10.0 | 0.00 | 0.00 | 0.00 | 79 | 1007.6 |
| 20260505182236 | 63 | 251 | 4.0 | 10.0 | 0.00 | 0.00 | 0.00 | 78 | 1007.6 |
| 20260505181737 | 64 | 253 | 4.0 | 11.0 | 0.00 | 0.00 | 0.00 | 77 | 1007.6 |
| 20260505181235 | 64 | 251 | 7.0 | 14.0 | 0.00 | 0.00 | 0.00 | 77 | 1007.6 |
| 20260505180737 | 64 | 243 | 7.0 | 14.0 | 0.00 | 0.00 | 0.00 | 76 | 1007.6 |
| 20260505180238 | 64 | 247 | 5.0 | 13.0 | 0.00 | 0.00 | 0.00 | 77 | 1007.6 |
| 20260505175736 | 64 | 249 | 4.0 | 9.0 | 0.00 | 0.00 | 0.00 | 76 | 1007.6 |
| 20260505175237 | 65 | 258 | 4.0 | 10.0 | 0.00 | 0.00 | 0.00 | 74 | 1007.7 |
| 20260505174736 | 66 | 257 | 3.0 | 10.0 | 0.00 | 0.00 | 0.00 | 74 | 1007.8 |
| 20260505174236 | 66 | 261 | 2.0 | 9.0 | 0.00 | 0.00 | 0.00 | 72 | 1007.9 |
| 20260505173736 | 68 | 245 | 1.0 | 9.0 | 0.00 | 0.00 | 0.00 | 69 | 1007.9 |
| 20260505173235 | 67 | 250 | 1.0 | 6.0 | 0.00 | 0.00 | 0.00 | 71 | 1007.9 |
| 20260505172733 | 67 | 276 | 1.0 | 7.0 | 0.00 | 0.00 | 0.00 | 71 | 1007.9 |
| 20260505172234 | 69 | 231 | 0.0 | 7.0 | 0.00 | 0.00 | 0.00 | 68 | 1007.9 |
| 20260505171734 | 69 | 263 | 0.0 | 4.0 | 0.00 | 0.00 | 0.00 | 68 | 1007.9 |
| 20260505171235 | 69 | 256 | 0.0 | 3.0 | 0.00 | 0.00 | 0.00 | 69 | 1007.9 |
| 20260505170735 | 69 | 267 | 0.0 | 2.0 | 0.00 | 0.00 | 0.00 | 67 | 1008.0 |
| 20260505170234 | 69 | 239 | 0.0 | 4.0 | 0.00 | 0.00 | 0.00 | 68 | 1008.1 |
| 20260505165735 | 69 | 251 | 0.0 | 4.0 | 0.00 | 0.00 | 0.00 | 68 | 1008.3 |
| 20260505165235 | 69 | 248 | 0.0 | 1.0 | 0.00 | 0.00 | 0.00 | 69 | 1008.3 |
| 20260505164734 | 68 | 243 | 0.0 | 1.0 | 0.00 | 0.00 | 0.00 | 71 | 1008.4 |
| 20260505164232 | 67 | 261 | 0.0 | 1.0 | 0.00 | 0.00 | 0.00 | 70 | 1008.5 |
| 20260505163731 | 67 | 233 | 0.0 | 1.0 | 0.00 | 0.00 | 0.00 | 73 | 1008.6 |
| 20260505163232 | 67 | 230 | 0.0 | 2.0 | 0.00 | 0.00 | 0.00 | 73 | 1008.6 |
| 20260505162733 | 67 | 239 | 0.0 | 2.0 | 0.00 | 0.00 | 0.00 | 74 | 1008.7 |
| 20260505162232 | 67 | 222 | 0.0 | 1.0 | 0.00 | 0.00 | 0.00 | 72 | 1008.7 |
| 20260505161731 | 67 | 244 | 0.0 | 1.0 | 0.00 | 0.00 | 0.00 | 72 | 1008.6 |
| 20260505161232 | 67 | 240 | 0.0 | 3.0 | 0.00 | 0.00 | 0.00 | 73 | 1008.6 |
| 20260505160232 | 66 | 264 | 0.0 | 1.0 | 0.00 | 0.00 | 0.00 | 75 | 1008.9 |
| 20260505153229 | 65 | 248 | 0.0 | 1.0 | 0.00 | 0.00 | 0.00 | 74 | 1009.2 |
| 20260505152729 | 65 | 249 | 0.0 | 1.0 | 0.00 | 0.00 | 0.00 | 75 | 1009.2 |
| 20260505152229 | 65 | 247 | 0.0 | 1.0 | 0.00 | 0.00 | 0.00 | 74 | 1009.3 |
| 20260505151729 | 65 | 246 | 0.0 | 4.0 | 0.00 | 0.00 | 0.00 | 74 | 1009.3 |
| 20260505151231 | 65 | 246 | 0.0 | 4.0 | 0.00 | 0.00 | 0.00 | 74 | 1009.3 |
| 20260505150229 | 64 | 247 | 0.0 | 2.0 | 0.00 | 0.00 | 0.00 | 75 | 1009.5 |
| 20260505140224 | 63 | 251 | 0.0 | 1.0 | 0.00 | 0.00 | 0.00 | 77 | 1009.6 |
| 20260505130224 | 60 | 236 | 0.0 | 1.0 | 0.00 | 0.00 | 0.00 | 82 | 1009.5 |
| 20260505124723 | 59 | 245 | 0.0 | 0.0 | 0.00 | 0.00 | 0.00 | 83 | 1009.3 |
| 20260505124224 | 59 | 246 | 0.0 | 0.0 | 0.00 | 0.00 | 0.00 | 85 | 1009.3 |
| 20260505123723 | 58 | 245 | 0.0 | 0.0 | 0.00 | 0.00 | 0.00 | 85 | 1009.3 |
| 20260505122723 | 57 | 247 | 0.0 | 0.0 | 0.00 | 0.00 | 0.00 | 86 | 1009.4 |
| 20260505122223 | 57 | 246 | 0.0 | 0.0 | 0.00 | 0.00 | 0.00 | 86 | 1009.4 |
| 20260505121722 | 57 | 246 | 0.0 | 0.0 | 0.00 | 0.00 | 0.00 | 86 | 1009.4 |
| 20260505121222 | 57 | 301 | 0.0 | 0.0 | 0.00 | 0.00 | 0.00 | 87 | 1009.4 |
| 20260505120721 | 56 | 302 | 0.0 | 0.0 | 0.00 | 0.00 | 0.00 | 87 | 1009.6 |
| 20260505120222 | 56 | 219 | 0.0 | 0.0 | 0.00 | 0.00 | 0.00 | 87 | 1009.5 |
| 20260505115723 | 56 | 218 | 0.0 | 0.0 | 0.00 | 0.00 | 0.00 | 87 | 1009.4 |
| 20260505114721 | 56 | 216 | 0.0 | 1.0 | 0.00 | 0.00 | 0.00 | 88 | 1009.4 |
| 20260505114221 | 56 | 217 | 0.0 | 2.0 | 0.00 | 0.00 | 0.00 | 88 | 1009.4 |
| 20260505113720 | 56 | 271 | 0.0 | 2.0 | 0.00 | 0.00 | 0.00 | 88 | 1009.5 |
| 20260505113220 | 56 | 257 | 0.0 | 1.0 | 0.00 | 0.00 | 0.00 | 90 | 1009.6 |
| 20260505112220 | 55 | 292 | 0.0 | 1.0 | 0.00 | 0.00 | 0.00 | 91 | 1009.6 |
| 20260505111720 | 55 | 301 | 0.0 | 1.0 | 0.00 | 0.00 | 0.00 | 91 | 1009.5 |
| 20260505111219 | 55 | 319 | 0.0 | 1.0 | 0.00 | 0.00 | 0.00 | 91 | 1009.6 |
| 20260505110719 | 54 | 310 | 0.0 | 1.0 | 0.00 | 0.00 | 0.00 | 92 | 1009.6 |
| 20260505110221 | 54 | 36 | 0.0 | 1.0 | 0.00 | 0.00 | 0.00 | 92 | 1009.6 |
| 20260505102217 | 52 | 283 | 0.0 | 0.0 | 0.00 | 0.00 | 0.00 | 91 | 1009.0 |
| 20260505101717 | 52 | 282 | 0.0 | 0.0 | 0.00 | 0.00 | 0.00 | 91 | 1008.8 |
| 20260505101218 | 52 | 282 | 0.0 | 0.0 | 0.00 | 0.00 | 0.00 | 91 | 1008.7 |
| 20260505100718 | 52 | 283 | 0.0 | 0.0 | 0.00 | 0.00 | 0.00 | 90 | 1008.8 |
| 20260505100218 | 52 | 283 | 0.0 | 0.0 | 0.00 | 0.00 | 0.00 | 90 | 1008.7 |
| 20260505095716 | 52 | 283 | 0.0 | 0.0 | 0.00 | 0.00 | 0.00 | 90 | 1008.7 |
| 20260505094715 | 52 | 283 | 0.0 | 0.0 | 0.00 | 0.00 | 0.00 | 90 | 1008.6 |
| 20260505094216 | 52 | 283 | 0.0 | 0.0 | 0.00 | 0.00 | 0.00 | 90 | 1008.4 |
| 20260505093716 | 52 | 283 | 0.0 | 0.0 | 0.00 | 0.00 | 0.00 | 90 | 1008.5 |
| 20260505093215 | 52 | 283 | 0.0 | 0.0 | 0.00 | 0.00 | 0.00 | 90 | 1008.6 |
| 20260505092715 | 52 | 283 | 0.0 | 0.0 | 0.00 | 0.00 | 0.00 | 89 | 1008.6 |
| 20260505091715 | 53 | 283 | 0.0 | 0.0 | 0.00 | 0.00 | 0.00 | 89 | 1008.6 |
| 20260505091215 | 53 | 283 | 0.0 | 0.0 | 0.00 | 0.00 | 0.00 | 89 | 1008.6 |
| 20260505090715 | 53 | 283 | 0.0 | 0.0 | 0.00 | 0.00 | 0.00 | 89 | 1008.7 |
| 20260505090212 | 53 | 283 | 0.0 | 0.0 | 0.00 | 0.00 | 0.00 | 88 | 1008.7 |
| 20260505085713 | 53 | 283 | 0.0 | 0.0 | 0.00 | 0.00 | 0.00 | 88 | 1008.8 |
| 20260505085213 | 53 | 283 | 0.0 | 0.0 | 0.00 | 0.00 | 0.00 | 88 | 1008.6 |
| 20260505084713 | 53 | 282 | 0.0 | 0.0 | 0.00 | 0.00 | 0.00 | 88 | 1008.6 |
| 20260505084214 | 53 | 283 | 0.0 | 0.0 | 0.00 | 0.00 | 0.00 | 88 | 1008.6 |
| 20260505083714 | 53 | 283 | 0.0 | 0.0 | 0.00 | 0.00 | 0.00 | 87 | 1008.5 |
| 20260505083212 | 54 | 283 | 0.0 | 0.0 | 0.00 | 0.00 | 0.00 | 87 | 1008.6 |
| 20260505082713 | 54 | 283 | 0.0 | 0.0 | 0.00 | 0.00 | 0.00 | 87 | 1008.6 |
| 20260505082214 | 54 | 282 | 0.0 | 0.0 | 0.00 | 0.00 | 0.00 | 87 | 1008.6 |
| 20260505080712 | 54 | 282 | 0.0 | 0.0 | 0.00 | 0.00 | 0.00 | 86 | 1008.6 |
| 20260505080211 | 54 | 283 | 0.0 | 0.0 | 0.00 | 0.00 | 0.00 | 86 | 1008.6 |
| 20260505075710 | 54 | 283 | 0.0 | 0.0 | 0.00 | 0.00 | 0.00 | 86 | 1008.6 |
| 20260505074710 | 54 | 297 | 0.0 | 1.0 | 0.00 | 0.00 | 0.00 | 86 | 1008.6 |
| 20260505074211 | 54 | 297 | 0.0 | 1.0 | 0.00 | 0.00 | 0.00 | 85 | 1008.6 |
| 20260505073712 | 55 | 297 | 0.0 | 0.0 | 0.00 | 0.00 | 0.00 | 85 | 1008.6 |
| 20260505073212 | 55 | 297 | 0.0 | 0.0 | 0.00 | 0.00 | 0.00 | 85 | 1008.5 |
| 20260505072711 | 55 | 297 | 0.0 | 0.0 | 0.00 | 0.00 | 0.00 | 85 | 1008.5 |
| 20260505072208 | 55 | 297 | 0.0 | 0.0 | 0.00 | 0.00 | 0.00 | 84 | 1008.5 |
| 20260505071709 | 55 | 297 | 0.0 | 0.0 | 0.00 | 0.00 | 0.00 | 84 | 1008.5 |
| 20260505071210 | 55 | 297 | 0.0 | 0.0 | 0.00 | 0.00 | 0.00 | 83 | 1008.6 |
| 20260505070709 | 55 | 297 | 0.0 | 1.0 | 0.00 | 0.00 | 0.00 | 83 | 1008.5 |
| 20260505070210 | 55 | 297 | 0.0 | 1.0 | 0.00 | 0.00 | 0.00 | 83 | 1008.6 |
| 20260505065709 | 55 | 290 | 0.0 | 0.0 | 0.00 | 0.00 | 0.00 | 82 | 1008.6 |